CW8998 Weather Reports


Display with metric or nautical units.
time (UTC)temp
F
wind
direction
speed
MPH
gust
MPH
rain 1hr
in
rain 24hr
in
rain mn
in
humidity
%
barometer
mb
20260904175525 76 328 1.0 8.0 0.00 0.00 0.00 76 1014.1
20260904175029 75 352 3.0 8.0 0.00 0.00 0.00 76 1014.1
20260904174613 75 42 2.0 7.0 0.00 0.00 0.00 76 1014.1
20260904174030 75 36 2.0 8.0 0.00 0.00 0.00 77 1014.1
20260904173528 75 306 2.0 8.0 0.00 0.00 0.00 77 1014.1
20260904173048 74 50 2.0 8.0 0.00 0.00 0.00 79 1014.0
20260904172532 74 304 2.0 8.0 0.00 0.00 0.00 79 1014.1
20260904172028 73 20 3.0 8.0 0.00 0.00 0.00 81 1014.0
20260904171602 73 0 3.0 9.0 0.00 0.00 0.00 81 1014.0
20260904171027 73 67 4.0 9.0 0.00 0.00 0.00 81 1014.1
20260904170528 73 28 3.0 9.0 0.00 0.00 0.00 81 1014.1
20260904170053 73 53 4.0 9.0 0.00 0.00 0.00 81 1014.0
20260904165529 73 60 2.0 8.0 0.00 0.00 0.00 81 1014.0
20260904165030 73 58 3.0 8.0 0.00 0.00 0.00 82 1013.9
20260904164553 73 293 3.0 11.0 0.00 0.00 0.00 81 1013.9
20260904164028 73 318 3.0 11.0 0.00 0.00 0.00 81 1013.9
20260904163528 73 12 4.0 11.0 0.00 0.00 0.00 82 1013.9
20260904163053 73 330 3.0 7.0 0.00 0.00 0.00 83 1013.7
20260904162530 73 30 3.0 5.0 0.00 0.00 0.00 83 1013.6
20260904162029 73 34 2.0 5.0 0.00 0.00 0.00 83 1013.6
20260904161549 73 322 1.0 7.0 0.00 0.00 0.00 83 1013.5
20260904161028 72 330 2.0 7.0 0.00 0.00 0.00 84 1013.5
20260904160528 72 352 1.0 4.0 0.00 0.00 0.00 84 1013.5
20260904160045 72 0 0.0 6.0 0.00 0.00 0.00 84 1013.5
20260904155528 71 340 2.0 6.0 0.00 0.00 0.00 84 1013.4
20260904155028 71 344 2.0 4.0 0.00 0.00 0.00 85 1013.4
20260904154553 71 288 1.0 4.0 0.00 0.00 0.00 85 1013.4
20260904154027 71 309 2.0 6.0 0.00 0.00 0.00 86 1013.3
20260904153527 71 14 1.0 7.0 0.00 0.00 0.00 86 1013.3
20260904153109 71 61 1.0 7.0 0.00 0.00 0.00 87 1013.3
20260904152528 70 17 0.0 4.0 0.00 0.00 0.00 87 1013.3
20260904152026 70 360 1.0 4.0 0.00 0.00 0.00 88 1013.2
20260904151547 70 5 1.0 3.0 0.00 0.00 0.00 88 1013.0
20260904151030 69 360 2.0 4.0 0.00 0.00 0.00 89 1013.1
20260904150529 69 69 2.0 4.0 0.00 0.00 0.00 89 1012.9
20260904150055 69 342 1.0 3.0 0.00 0.00 0.00 90 1012.8
20260904145530 68 351 1.0 6.0 0.00 0.00 0.00 90 1012.8
20260904145028 68 43 2.0 6.0 0.00 0.00 0.00 90 1012.8
20260904144550 68 24 1.0 5.0 0.00 0.00 0.00 91 1012.7
20260904144028 68 38 0.0 3.0 0.00 0.00 0.00 91 1012.7
20260904143527 68 69 1.0 4.0 0.00 0.00 0.00 91 1012.6
20260904143048 67 327 0.0 6.0 0.00 0.00 0.00 92 1012.7
20260904142527 67 5 1.0 6.0 0.00 0.00 0.00 92 1012.8
20260904142027 67 344 1.0 4.0 0.00 0.00 0.00 92 1012.7
20260904141544 67 326 1.0 5.0 0.00 0.00 0.00 92 1012.5
20260904141027 67 25 1.0 6.0 0.00 0.00 0.00 92 1012.5
20260904140528 67 360 2.0 6.0 0.00 0.00 0.00 92 1012.5
20260904140044 67 5 2.0 7.0 0.00 0.00 0.00 92 1012.4
20260904135529 67 315 3.0 7.0 0.00 0.00 0.00 92 1012.2
20260904135029 66 13 1.0 5.0 0.00 0.00 0.00 92 1012.4
20260904134554 66 26 2.0 5.0 0.00 0.00 0.00 92 1012.2
20260904134025 66 28 2.0 5.0 0.00 0.00 0.00 92 1012.3
20260904133527 66 25 0.0 4.0 0.00 0.00 0.00 92 1012.2
20260904133043 66 46 1.0 4.0 0.00 0.00 0.00 92 1012.2
20260904132528 66 0 1.0 3.0 0.00 0.00 0.00 91 1012.1
20260904132028 66 69 1.0 3.0 0.00 0.00 0.00 92 1012.1
20260904131549 66 309 0.0 3.0 0.00 0.00 0.00 92 1012.0
20260904131028 66 64 1.0 3.0 0.00 0.00 0.00 91 1012.0
20260904130527 66 47 1.0 3.0 0.00 0.00 0.00 91 1011.8
20260904130053 66 34 0.0 3.0 0.00 0.00 0.00 91 1011.8
20260904125528 66 0 0.0 2.0 0.00 0.00 0.00 91 1011.9
20260904125030 65 0 0.0 3.0 0.00 0.00 0.00 91 1011.8
20260904124544 65 0 0.0 3.0 0.00 0.00 0.00 91 1011.6
20260904124028 65 351 0.0 2.0 0.00 0.00 0.00 91 1011.5
20260904123529 65 0 0.0 2.0 0.00 0.00 0.00 91 1011.4
20260904123045 65 0 0.0 3.0 0.00 0.00 0.00 91 1011.5
20260904122526 65 29 1.0 3.0 0.00 0.00 0.00 91 1011.6
20260904122026 65 18 1.0 3.0 0.00 0.00 0.00 90 1011.5
20260904121541 65 66 0.0 3.0 0.00 0.00 0.00 90 1011.4
20260904121028 65 0 1.0 4.0 0.00 0.00 0.00 90 1011.3
20260904120526 65 332 1.0 4.0 0.00 0.00 0.00 90 1011.2
20260904120107 65 5 1.0 4.0 0.00 0.00 0.00 90 1011.2
20260904115528 65 13 0.0 5.0 0.00 0.00 0.00 90 1011.1
20260904115028 65 0 2.0 5.0 0.00 0.00 0.00 90 1011.2
20260904114547 65 42 1.0 5.0 0.00 0.00 0.00 89 1011.2
20260904114026 65 0 2.0 5.0 0.00 0.00 0.00 89 1011.2
20260904113529 65 22 2.0 5.0 0.00 0.00 0.00 89 1011.1
20260904113045 65 55 2.0 6.0 0.00 0.00 0.00 89 1011.1
20260904112529 66 28 2.0 6.0 0.00 0.00 0.00 89 1011.1
20260904112028 66 40 2.0 6.0 0.00 0.00 0.00 89 1011.2
20260904111544 66 360 1.0 4.0 0.00 0.00 0.00 88 1011.1
20260904111025 66 34 2.0 5.0 0.00 0.00 0.00 88 1011.2
20260904110530 66 74 1.0 5.0 0.00 0.00 0.00 88 1011.1
20260904110054 66 319 1.0 8.0 0.00 0.00 0.00 88 1011.2
20260904105528 66 0 1.0 8.0 0.00 0.00 0.00 88 1011.2
20260904105029 66 59 3.0 6.0 0.00 0.00 0.00 88 1011.1
20260904104546 66 311 2.0 6.0 0.00 0.00 0.00 87 1011.1
20260904104029 66 32 2.0 6.0 0.00 0.00 0.00 87 1011.1
20260904103528 66 78 2.0 5.0 0.00 0.00 0.00 87 1011.0
20260904103045 66 47 2.0 5.0 0.00 0.00 0.00 87 1011.0
20260904102526 66 33 1.0 5.0 0.00 0.00 0.00 87 1010.8
20260904102025 66 342 0.0 5.0 0.00 0.00 0.00 87 1010.9
20260904101551 66 61 1.0 5.0 0.00 0.00 0.00 87 1010.8
20260904101028 66 40 1.0 4.0 0.00 0.00 0.00 87 1010.7
20260904100528 66 13 2.0 4.0 0.00 0.00 0.00 87 1010.9
20260904100053 66 5 0.0 3.0 0.00 0.00 0.00 87 1010.7
20260904095528 66 0 0.0 3.0 0.00 0.00 0.00 87 1010.7
20260904095028 66 97 0.0 3.0 0.00 0.00 0.00 87 1010.6
20260904094544 66 0 0.0 3.0 0.00 0.00 0.00 87 1010.5
20260904094029 66 0 0.0 5.0 0.00 0.00 0.00 87 1010.6
20260904093529 67 0 2.0 5.0 0.00 0.00 0.00 87 1010.6
20260904093100 67 69 2.0 6.0 0.00 0.00 0.00 87 1010.6
20260904092530 67 263 1.0 6.0 0.00 0.00 0.00 87 1010.4
20260904092031 67 38 1.0 9.0 0.00 0.00 0.00 87 1010.4
20260904091551 67 263 2.0 9.0 0.00 0.00 0.00 87 1010.2
20260904091029 68 0 2.0 6.0 0.00 0.00 0.00 87 1010.4
20260904090529 68 36 2.0 11.0 0.00 0.00 0.00 87 1010.3
20260904090044 68 94 2.0 11.0 0.00 0.00 0.00 87 1010.2
20260904085529 68 82 3.0 9.0 0.00 0.00 0.00 88 1010.4
20260904085029 69 34 2.0 9.0 0.00 0.00 0.00 88 1010.4
20260904084545 69 326 0.0 9.0 0.00 0.00 0.00 88 1010.2
20260904084029 69 33 3.0 9.0 0.00 0.00 0.00 88 1010.3
20260904083529 70 206 2.0 9.0 0.00 0.00 0.00 88 1009.9
20260904083048 70 60 3.0 11.0 0.00 0.00 0.00 88 1010.1
20260904082528 70 65 4.0 11.0 0.00 0.00 0.00 89 1009.7
20260904082026 71 50 3.0 9.0 0.00 0.00 0.00 89 1010.0
20260904081546 71 0 2.0 8.0 0.00 0.00 0.00 89 1009.7
20260904081028 71 49 2.0 9.0 0.00 0.00 0.00 89 1010.0
20260904080528 71 32 2.0 9.0 0.00 0.00 0.00 89 1009.9
20260904080045 71 18 3.0 9.0 0.00 0.00 0.00 88 1010.0
20260904075528 71 351 1.0 8.0 0.00 0.00 0.00 88 1009.7
20260904075030 71 112 2.0 8.0 0.00 0.00 0.00 88 1009.8
20260904074543 71 351 3.0 11.0 0.00 0.00 0.00 88 1010.0
20260904074028 71 44 2.0 11.0 0.00 0.00 0.00 88 1009.7
20260904073528 71 59 4.0 11.0 0.00 0.00 0.00 88 1010.1
20260904073052 71 35 1.0 3.0 0.00 0.00 0.00 88 1009.7
20260904072528 71 0 0.0 4.0 0.00 0.00 0.00 88 1009.4
20260904072026 71 0 1.0 4.0 0.00 0.00 0.00 88 1009.3
20260904071600 71 0 0.0 2.0 0.00 0.00 0.00 87 1009.2
20260904071027 72 0 0.0 3.0 0.00 0.00 0.00 87 1009.2
20260904070528 72 0 0.0 3.0 0.00 0.00 0.00 87 1009.3
20260904070047 72 175 1.0 5.0 0.00 0.00 0.00 87 1009.4
20260904065525 72 171 1.0 5.0 0.00 0.00 0.00 87 1009.5
20260904065025 72 184 1.0 4.0 0.00 0.00 0.00 86 1009.4
20260904064544 72 0 0.0 4.0 0.00 0.00 0.00 86 1009.5
20260904064025 72 0 0.0 4.0 0.00 0.00 0.00 86 1009.6
20260904063528 72 0 0.0 1.0 0.00 0.00 0.00 86 1009.6
20260904063045 72 0 0.0 3.0 0.00 0.00 0.00 85 1009.6
20260904062529 72 0 0.0 4.0 0.00 0.00 0.00 85 1009.5
20260904062027 72 0 1.0 4.0 0.00 0.00 0.00 85 1009.5
20260904061552 73 19 0.0 3.0 0.00 0.00 0.00 85 1009.5
20260904061027 73 0 0.0 3.0 0.00 0.00 0.00 85 1009.4
20260904060525 73 0 0.0 3.0 0.00 0.00 0.00 85 1009.4
20260904060045 73 178 1.0 3.0 0.00 0.00 0.00 84 1009.3
20260904055527 73 0 0.0 2.0 0.00 0.00 0.00 84 1009.4
20260904055026 73 22 0.0 2.0 0.00 0.00 0.00 83 1009.6
20260904054547 73 86 0.0 2.0 0.00 0.00 0.00 83 1009.6
20260904054028 74 0 0.0 1.0 0.00 0.00 0.00 83 1009.5
20260904053527 74 0 0.0 1.0 0.00 0.00 0.00 83 1009.4
20260904053130 74 0 0.0 2.0 0.00 0.00 0.00 83 1009.4
20260904052528 74 269 0.0 2.0 0.00 0.00 0.00 82 1009.3
20260904052027 74 0 0.0 2.0 0.00 0.00 0.00 83 1009.2
20260904051546 74 0 0.0 4.0 0.00 0.00 0.00 82 1009.1
20260904051028 74 144 0.0 4.0 0.00 0.00 0.00 82 1009.1
20260904050526 74 242 1.0 3.0 0.00 0.00 0.00 82 1009.0
20260904050046 74 20 0.0 4.0 0.00 0.00 0.00 82 1009.0
20260904045528 74 346 1.0 4.0 0.00 0.00 0.00 82 1009.0
20260904045026 74 29 0.0 3.0 0.00 0.00 0.00 82 1009.0
20260904044550 74 0 0.0 2.0 0.00 0.00 0.00 82 1009.0
20260904044029 74 0 0.0 2.0 0.00 0.00 0.00 81 1008.9
20260904043525 75 174 0.0 2.0 0.00 0.00 0.00 81 1008.9
20260904043054 75 0 0.0 3.0 0.00 0.00 0.00 81 1008.8
20260904042528 75 0 0.0 4.0 0.00 0.00 0.00 81 1008.8
20260904042029 75 201 0.0 4.0 0.00 0.00 0.00 81 1008.8
20260904041602 75 0 0.0 4.0 0.00 0.00 0.00 81 1008.9
20260904041026 75 0 1.0 4.0 0.00 0.00 0.00 80 1008.7
20260904040527 75 190 1.0 4.0 0.00 0.00 0.00 80 1008.7
20260904040047 75 190 1.0 4.0 0.00 0.00 0.00 80 1008.6
20260904035528 75 176 1.0 3.0 0.00 0.00 0.00 79 1008.6
20260904035028 75 104 0.0 3.0 0.00 0.00 0.00 79 1008.8
20260904034543 76 49 1.0 3.0 0.00 0.00 0.00 79 1008.9
20260904034027 76 0 0.0 2.0 0.00 0.00 0.00 79 1008.8
20260904033528 76 0 0.0 2.0 0.00 0.00 0.00 79 1008.8
20260904033101 76 0 0.0 5.0 0.00 0.00 0.00 79 1008.6
20260904032528 76 0 0.0 5.0 0.00 0.00 0.00 78 1008.7
20260904032028 76 0 1.0 4.0 0.00 0.00 0.00 78 1008.7
20260904031551 76 159 1.0 4.0 0.00 0.00 0.00 78 1008.7
20260904031031 76 0 1.0 4.0 0.00 0.00 0.00 77 1008.7
20260904030527 77 159 0.0 3.0 0.00 0.00 0.00 77 1008.7
20260904030046 77 0 1.0 4.0 0.00 0.00 0.00 76 1008.9
20260904025528 77 112 0.0 4.0 0.00 0.00 0.00 76 1008.8
20260904025026 77 132 0.0 2.0 0.00 0.00 0.00 76 1008.9
20260904024545 77 331 0.0 2.0 0.00 0.00 0.00 76 1009.0
20260904024028 77 5 0.0 3.0 0.00 0.00 0.00 76 1009.0
20260904023528 77 39 1.0 3.0 0.00 0.00 0.00 76 1008.9
20260904023046 77 0 0.0 3.0 0.00 0.00 0.00 76 1008.9
20260904022528 78 343 0.0 2.0 0.00 0.00 0.00 76 1008.7
20260904022030 78 0 0.0 3.0 0.00 0.00 0.00 76 1008.5
20260904021551 78 0 0.0 3.0 0.00 0.00 0.00 75 1008.5
20260904021029 78 161 0.0 3.0 0.00 0.00 0.00 75 1008.5
20260904020528 78 0 0.0 2.0 0.00 0.00 0.00 75 1008.5
20260904020059 78 26 0.0 2.0 0.00 0.00 0.00 74 1008.6
20260904015526 78 0 0.0 2.0 0.00 0.00 0.00 74 1008.6
20260904015029 79 169 0.0 2.0 0.00 0.00 0.00 74 1008.6
20260904014615 79 0 0.0 2.0 0.00 0.00 0.00 74 1008.4
20260904014032 79 0 0.0 3.0 0.00 0.00 0.00 73 1008.4
20260904013530 79 0 0.0 4.0 0.00 0.00 0.00 73 1008.3
20260904013044 80 167 1.0 4.0 0.00 0.00 0.00 73 1008.1
20260904012528 80 159 0.0 3.0 0.00 0.00 0.00 73 1008.1
20260904012029 80 115 0.0 2.0 0.00 0.00 0.00 72 1008.1
20260904011552 80 0 0.0 2.0 0.00 0.00 0.00 71 1008.0
20260904011028 81 0 0.0 1.0 0.00 0.00 0.00 71 1008.1
20260904010528 81 0 0.0 2.0 0.00 0.00 0.00 70 1008.0
20260904010057 82 105 0.0 3.0 0.00 0.00 0.00 70 1007.9
20260904005528 82 0 0.0 3.0 0.00 0.00 0.00 69 1007.8
20260904005026 82 0 0.0 2.0 0.00 0.00 0.00 69 1007.8
20260904004545 83 164 0.0 3.0 0.00 0.00 0.00 68 1007.8
20260904004028 83 213 0.0 3.0 0.00 0.00 0.00 67 1007.7
20260904003528 83 0 0.0 5.0 0.00 0.00 0.00 67 1007.8
20260904003054 84 302 1.0 5.0 0.00 0.00 0.00 67 1007.7
20260904002529 84 169 1.0 7.0 0.00 0.00 0.00 66 1007.7
20260904002029 84 163 2.0 7.0 0.00 0.00 0.00 66 1007.8
20260904001543 84 173 2.0 7.0 0.00 0.00 0.00 66 1007.7
20260904001028 85 169 2.0 11.0 0.00 0.00 0.00 65 1007.7
20260904000528 85 327 2.0 11.0 0.00 0.00 0.00 65 1007.7
20260904000048 85 173 2.0 6.0 0.00 0.00 0.00 65 1007.6
20260903235525 85 167 3.0 6.0 0.00 0.00 0.00 65 1007.7
20260903235029 85 181 2.0 6.0 0.00 0.00 0.00 65 1007.9
20260903234546 85 159 2.0 8.0 0.00 0.00 0.00 64 1007.8
20260903234029 85 188 2.0 10.0 0.00 0.00 0.00 64 1007.8
20260903233533 85 355 4.0 10.0 0.00 0.00 0.00 64 1007.7
20260903233044 86 173 3.0 7.0 0.00 0.00 0.00 63 1007.6
20260903232529 86 190 3.0 8.0 0.00 0.00 0.00 64 1007.5
20260903232028 86 215 3.0 10.0 0.00 0.00 0.00 63 1007.5
20260903231544 86 319 3.0 10.0 0.00 0.00 0.00 63 1007.4
20260903231028 86 73 3.0 10.0 0.00 0.00 0.00 63 1007.3
20260903230529 86 171 3.0 10.0 0.00 0.00 0.00 64 1007.3
20260903230100 86 240 4.0 9.0 0.00 0.00 0.00 63 1007.4
20260903225530 87 355 2.0 7.0 0.00 0.00 0.00 63 1007.5
20260903225030 86 34 1.0 11.0 0.00 0.00 0.00 64 1007.5
20260903224545 85 176 3.0 11.0 0.00 0.00 0.00 64 1007.5
20260903224028 86 152 3.0 11.0 0.00 0.00 0.00 63 1007.4
20260903223530 86 148 3.0 9.0 0.00 0.00 0.00 63 1007.4
20260903223047 86 192 3.0 10.0 0.00 0.00 0.00 62 1007.3
20260903222526 87 153 2.0 11.0 0.00 0.00 0.00 61 1007.2
20260903222029 87 180 2.0 11.0 0.00 0.00 0.00 61 1007.3
20260903221546 86 199 2.0 9.0 0.00 0.00 0.00 62 1007.2
20260903221031 86 201 5.0 10.0 0.00 0.00 0.00 62 1007.2
20260903220528 87 173 3.0 11.0 0.00 0.00 0.00 62 1007.3
20260903220044 86 184 3.0 11.0 0.00 0.00 0.00 62 1007.2
20260903215529 86 184 2.0 9.0 0.00 0.00 0.00 62 1007.3
20260903215029 86 203 3.0 12.0 0.00 0.00 0.00 61 1007.3
20260903214550 87 192 3.0 12.0 0.00 0.00 0.00 60 1007.3
20260903214029 87 198 3.0 14.0 0.00 0.00 0.00 60 1007.4
20260903213527 86 207 4.0 20.0 0.00 0.00 0.00 60 1007.3
20260903213052 87 166 4.0 20.0 0.00 0.00 0.00 61 1007.4
20260903212529 86 94 5.0 10.0 0.00 0.00 0.00 61 1007.3
20260903212029 86 133 4.0 10.0 0.00 0.00 0.00 62 1007.3
20260903211553 86 209 4.0 10.0 0.00 0.00 0.00 61 1007.3
20260903211028 87 195 4.0 11.0 0.00 0.00 0.00 60 1007.3
20260903210528 87 85 3.0 13.0 0.00 0.00 0.00 60 1007.2
20260903210045 87 169 6.0 13.0 0.00 0.00 0.00 59 1007.2
20260903205525 87 137 5.0 17.0 0.00 0.00 0.00 59 1007.2
20260903205029 88 84 3.0 17.0 0.00 0.00 0.00 58 1007.3
20260903204548 88 142 5.0 17.0 0.00 0.00 0.00 59 1007.3
20260903204029 88 202 7.0 17.0 0.00 0.00 0.00 58 1007.2
20260903203526 89 61 4.0 16.0 0.00 0.00 0.00 57 1007.2
20260903203047 88 154 4.0 15.0 0.00 0.00 0.00 58 1007.3
20260903202527 88 182 4.0 9.0 0.00 0.00 0.00 59 1007.3
20260903202029 88 229 3.0 9.0 0.00 0.00 0.00 59 1007.2
20260903201545 87 95 2.0 10.0 0.00 0.00 0.00 59 1007.1
20260903201029 88 171 5.0 10.0 0.00 0.00 0.00 58 1007.3
20260903200528 88 275 3.0 10.0 0.00 0.00 0.00 58 1007.3
20260903200055 88 241 2.0 11.0 0.00 0.00 0.00 58 1007.4
20260903195528 87 151 3.0 11.0 0.00 0.00 0.00 60 1007.4
20260903195028 87 192 4.0 12.0 0.00 0.00 0.00 60 1007.6
20260903194548 87 155 4.0 13.0 0.00 0.00 0.00 59 1007.6
20260903194028 88 140 3.0 13.0 0.00 0.00 0.00 58 1007.7
20260903193528 89 87 4.0 13.0 0.00 0.00 0.00 57 1007.9
20260903193051 88 28 3.0 14.0 0.00 0.00 0.00 58 1007.8
20260903192526 87 138 6.0 14.0 0.00 0.00 0.00 58 1008.0
20260903192027 87 146 6.0 13.0 0.00 0.00 0.00 59 1008.0
20260903191543 88 168 5.0 13.0 0.00 0.00 0.00 58 1008.0
20260903191030 88 109 3.0 13.0 0.00 0.00 0.00 58 1008.0
20260903190529 88 77 4.0 13.0 0.00 0.00 0.00 58 1008.1
20260903190053 87 192 4.0 12.0 0.00 0.00 0.00 58 1008.1
20260903185528 87 229 5.0 12.0 0.00 0.00 0.00 59 1008.2
20260903185028 87 263 4.0 11.0 0.00 0.00 0.00 59 1008.4
20260903184549 87 54 4.0 11.0 0.00 0.00 0.00 58 1008.5
20260903184029 88 163 3.0 11.0 0.00 0.00 0.00 58 1008.4
20260903183528 87 202 5.0 16.0 0.00 0.00 0.00 59 1008.6
20260903183047 87 186 7.0 16.0 0.00 0.00 0.00 57 1008.5
20260903182525 87 146 6.0 16.0 0.00 0.00 0.00 57 1008.5
20260903182026 87 190 4.0 11.0 0.00 0.00 0.00 58 1008.4
20260903181551 87 86 4.0 13.0 0.00 0.00 0.00 58 1008.8
20260903181026 88 142 5.0 13.0 0.00 0.00 0.00 56 1008.8
20260903180526 88 124 4.0 15.0 0.00 0.00 0.00 57 1008.9